Temp_Advection
nan nan nan nan nan nan nan nan nan nan nan nan nan nan nan nan nan nan nan nan nan nan nan nan nan nan nan nan nan nan nan nan nan nan nan nan nan nan nan nan nan nan nan nan
nan -0 -1 -0 -0 -0 -0 0 0 -0 -0 0 0 0 -0 -0 -1 1 -1 -1 0 0 0 0 0 0 0 -0 -0 -0 -0 -0 -0 -0 -1 -1 -0 -0 -0 -0 -0 -0 -0 nan
nan -1 -0 0 0 -0 0 -0 -0 -0 -0 -0 -0 -0 -0 -0 2 0 -0 1 0 -0 -0 0 0 0 0 0 -0 -0 -0 -0 -0 -0 -0 -0 -0 -0 -0 -0 -1 -1 -0 nan
nan -1 0 0 -0 0 -0 -0 0 -0 -0 0 -0 -0 -0 -0 -0 1 0 1 0 0 -0 0 0 0 0 0 0 0 -0 -0 -1 -0 -0 -0 -0 -0 -1 -0 -0 -1 -1 nan
nan -0 -0 0 -0 -0 0 0 0 0 0 -0 0 0 0 -0 -0 -0 0 0 0 0 0 0 0 0 0 0 0 0 0 -0 -0 -0 -0 -0 -0 -0 -0 -0 -0 -0 -1 nan
nan -0 -0 -0 -0 -0 -0 0 -0 0 0 -0 -0 0 0 0 -0 -0 -0 -0 0 -0 -0 -0 0 0 0 1 0 0 0 -0 -0 -0 -0 -0 -0 -0 -1 -1 -1 -0 -1 nan
nan 0 -0 0 0 0 -0 -0 -0 -0 -0 -1 -0 0 0 -0 0 -0 -0 -0 -0 -0 -0 0 0 0 1 0 0 0 0 -0 -0 -0 -0 -0 -0 -1 -1 -1 -1 -1 -1 nan
nan -0 -1 0 0 0 0 -0 -0 -0 -0 -0 -0 0 0 -0 -0 -0 -0 -0 -0 -0 0 0 -0 1 1 0 0 0 0 -0 -0 -0 -0 -0 -0 -1 -1 -0 -0 -1 -0 nan
nan -0 -0 -0 0 -0 0 -0 -0 -0 -0 -0 -0 0 -0 -0 -0 -0 1 0 0 0 0 0 0 1 1 0 0 0 0 -0 -0 -0 -0 -0 -0 -1 -0 -0 -0 -0 -0 nan
nan -0 -0 -0 -0 -0 0 -0 -0 -0 0 0 -0 0 0 0 0 -0 0 -0 -0 -0 -0 0 1 1 1 0 0 0 0 -0 -0 -0 -0 -0 -0 -1 -0 -0 -0 -0 -0 nan
nan 0 -0 -0 -0 0 -0 0 -0 -0 -0 0 0 -0 -0 -0 0 -0 -1 -2 -1 0 1 1 1 1 0 0 0 0 0 0 -0 -0 -0 -0 -0 -0 -0 -0 -0 -0 -0 nan
nan -0 0 0 0 0 0 -0 -0 0 0 0 -0 -1 -0 -0 -0 -1 -2 -0 1 1 2 2 1 1 0 0 0 0 0 0 -0 -0 -0 -0 -0 -0 -1 -1 -0 -0 -0 nan
nan -0 -0 -1 -0 0 0 0 0 -0 -0 0 -0 -0 -0 -0 -0 -0 0 1 2 2 2 2 1 1 0 0 0 0 0 0 -0 -0 -0 -0 -0 -0 -1 -1 -0 -0 -0 nan
nan 0 -0 -0 0 0 0 0 -0 -0 -0 -0 -0 -0 -0 0 0 0 0 1 2 2 2 1 1 0 0 0 0 0 0 0 -0 -0 -0 -0 -0 -0 -0 -0 -0 -0 -0 nan
nan 0 0 0 0 0 0 0 0 0 -0 -0 -0 -0 0 0 0 0 -0 0 1 1 1 0 0 1 1 0 0 0 0 0 0 0 0 0 -0 -0 -0 -0 -0 -0 -1 nan
nan 0 -0 -0 0 0 0 0 0 -0 -0 -0 -0 0 0 0 -0 -0 -0 -1 -1 -1 -1 -0 0 0 0 0 0 0 0 0 0 0 0 0 0 0 0 -0 -0 -0 -0 nan
nan -0 0 -1 -0 -0 1 -0 -1 -0 -0 -0 -0 0 -0 0 -0 -0 -0 -1 -1 -1 0 0 0 0 0 0 0 -0 0 0 0 0 0 0 0 0 0 0 -0 -0 -0 nan
nan -0 0 0 0 0 -0 -1 -0 -0 0 0 0 -0 -0 0 0 0 -0 -0 0 1 1 1 1 0 0 0 0 0 0 0 0 0 0 0 0 0 0 -0 -0 -0 -0 nan
nan -0 -0 0 0 -0 -0 -0 -0 -0 -0 0 0 -0 0 0 0 0 0 0 0 1 1 1 1 0 0 0 0 0 0 0 0 0 0 0 0 0 -0 -0 -0 -0 -0 nan
nan -0 -0 0 0 0 -0 -1 -0 -0 0 -0 -0 -0 -0 -0 -0 -0 -1 0 1 1 1 1 1 0 0 0 0 0 0 0 0 0 0 0 -0 -0 -0 -0 -0 -0 0 nan
nan -0 0 0 -0 -0 -1 -1 0 1 -0 -0 -0 -1 -1 -0 -1 -0 0 1 0 1 1 1 1 1 0 0 0 0 0 0 0 0 0 0 -0 -0 -0 -0 -0 0 0 nan
nan -0 0 -0 0 -1 -0 0 0 -0 -0 -0 -0 -0 -0 -0 0 0 1 1 1 1 1 0 0 1 0 0 0 0 0 0 0 0 0 0 -0 -0 -0 0 0 0 0 nan
nan -0 -0 -0 -0 -1 -0 -0 -0 -0 -0 0 -0 0 0 0 0 1 1 1 1 0 0 0 0 0 0 0 0 0 -0 0 0 0 0 0 0 0 -0 -0 -0 -0 -0 nan
nan -0 -0 0 -0 -0 -0 -0 0 0 0 0 0 0 0 0 0 1 1 0 0 0 1 0 0 0 0 0 -0 0 0 0 0 0 0 0 0 0 0 -0 -0 -0 -0 nan
nan -0 -0 -0 -0 -0 -0 0 0 0 0 0 0 0 0 0 0 1 0 0 0 1 1 0 0 0 -0 -0 0 0 0 0 0 0 0 0 0 0 0 0 0 -0 -0 nan
nan nan nan nan nan nan nan nan nan nan nan nan nan nan nan nan nan nan nan nan nan nan nan nan nan nan nan nan nan nan nan nan nan nan nan nan nan nan nan nan nan nan nan nan
Wind_Speed
6 1 7 9 8 7 5 6 4 4 7 4 8 6 13 24 18 21 27 30 26 21 16 9 4 1 3 3 5 7 10 13 15 17 18 16 17 18 18 21 23 26 27 29
3 8 12 9 10 8 8 6 6 6 5 6 4 4 9 11 26 29 34 33 32 27 19 12 6 2 3 3 6 8 11 14 17 19 18 18 17 16 17 19 22 25 27 30
10 9 7 8 7 7 5 4 4 6 4 3 6 3 5 8 19 18 26 33 32 29 24 16 9 5 3 4 6 8 10 13 15 16 16 14 13 14 15 17 20 24 27 30
8 14 16 16 11 8 11 5 3 2 3 4 4 5 5 2 5 13 24 30 33 29 23 17 12 7 3 5 8 9 10 13 15 16 16 16 17 18 19 20 20 21 26 30
9 3 1 4 9 13 11 7 6 2 1 1 4 3 3 9 4 10 15 27 32 28 23 19 12 7 4 6 9 10 10 12 15 15 16 16 16 17 18 18 19 20 23 28
13 14 3 2 4 1 5 3 2 1 3 5 6 7 4 1 8 10 16 23 31 27 21 16 10 9 8 10 9 10 10 11 13 13 14 15 16 16 17 18 19 21 22 26
10 19 11 10 5 3 3 4 2 3 1 5 1 5 2 7 14 17 22 25 29 25 19 16 14 10 11 9 8 9 10 10 12 12 12 13 14 16 17 18 19 21 23 25
5 7 14 10 18 8 6 7 5 5 3 3 4 2 3 3 14 23 21 28 25 21 18 17 14 12 11 9 8 8 9 8 9 9 10 12 13 15 15 16 18 20 22 24
3 5 5 5 5 12 5 4 4 3 2 2 3 3 2 5 9 16 21 26 25 22 20 18 17 16 13 10 7 7 7 6 6 6 8 10 12 13 15 16 17 18 20 22
4 3 4 4 7 5 6 5 2 2 2 3 4 4 4 6 7 7 11 23 24 22 22 21 20 18 11 8 6 5 4 4 3 5 7 10 11 12 14 15 16 18 19 19
6 5 4 1 1 6 2 3 2 3 5 4 2 5 6 9 9 12 18 27 28 27 26 24 22 16 11 7 5 4 3 2 3 5 8 10 11 12 13 14 16 18 19 19
5 5 4 4 2 2 6 8 6 4 5 2 4 5 1 11 15 18 22 24 26 27 27 25 20 15 10 7 5 4 3 1 2 5 8 10 10 11 13 14 15 17 19 19
4 1 1 7 4 2 3 4 4 4 3 6 5 5 2 4 7 12 14 16 25 24 25 24 21 16 10 8 6 5 3 1 1 5 8 9 10 11 13 15 16 17 17 18
5 4 6 9 4 2 4 0 3 4 3 3 5 5 5 6 5 8 6 7 14 23 23 23 20 15 11 8 7 6 4 2 1 2 5 7 8 9 11 14 16 16 18 18
5 3 1 3 3 1 2 3 1 2 3 5 4 8 5 6 5 3 8 10 11 15 20 21 18 17 13 11 10 8 6 4 3 2 3 4 5 5 8 12 14 15 16 18
4 3 3 3 3 1 5 4 5 6 5 6 7 9 8 7 13 10 10 11 10 13 15 17 17 17 15 13 12 12 8 5 5 5 5 3 3 3 4 8 12 12 13 17
10 6 2 12 3 3 8 6 7 6 6 6 6 8 6 5 7 9 10 12 14 15 15 14 13 14 16 16 15 15 10 10 9 8 7 6 3 3 2 4 7 9 12 14
5 6 4 3 4 7 7 5 5 9 7 8 7 6 11 14 10 8 6 9 13 16 16 15 13 14 18 16 18 14 11 9 10 9 7 6 3 1 1 2 5 7 9 13
6 5 3 4 7 5 5 5 4 1 6 3 8 8 13 17 10 5 8 10 10 12 14 11 12 16 18 19 17 14 12 9 9 9 7 5 3 3 4 5 6 6 8 11
5 6 4 1 4 7 5 12 23 3 4 1 12 9 13 16 3 4 13 12 13 13 12 14 17 17 17 17 15 13 11 9 7 7 6 5 5 5 4 5 5 5 6 9
5 2 9 5 5 6 5 9 4 6 5 15 19 20 18 5 7 3 9 13 12 13 14 16 17 18 17 15 12 12 11 11 8 7 6 6 5 5 5 3 3 3 5 8
7 8 4 3 4 9 6 5 9 5 11 19 14 18 13 7 6 7 10 15 16 16 18 16 17 19 17 13 12 11 10 10 9 7 6 5 4 3 3 2 2 2 4 6
3 6 4 7 6 6 6 3 5 4 8 11 13 16 12 11 10 11 15 19 18 16 15 14 16 20 16 13 11 12 9 10 9 7 6 6 4 2 1 2 3 4 4 5
3 3 4 3 4 6 18 14 12 9 9 11 13 15 14 9 9 15 23 22 19 18 18 16 18 19 18 14 14 12 9 9 8 7 7 6 5 4 1 1 2 4 5 6
3 2 4 2 3 3 9 14 13 12 13 15 13 10 10 11 11 15 22 23 19 21 22 20 20 23 21 18 16 16 13 11 12 10 10 8 7 5 3 2 2 4 6 6
4 5 4 4 6 4 5 4 7 11 11 12 14 14 14 13 12 16 21 23 22 27 26 24 24 23 19 19 19 19 16 15 15 13 12 11 9 8 6 5 3 2 4 6
Wind_Direction
248 136 231 228 214 235 241 230 251 219 241 244 249 230 195 198 192 178 168 158 160 164 160 167 169 240 307 334 339 346 338 335 342 345 346 347 348 348 347 352 356 357 358 356
289 241 243 252 258 232 222 229 247 281 283 175 232 242 212 187 210 188 168 164 164 154 159 161 172 231 274 338 345 341 334 335 341 342 346 345 342 342 344 350 357 1 2 2
219 238 247 249 262 261 240 203 215 236 322 332 345 306 206 212 216 166 167 168 166 165 163 164 177 209 261 319 344 335 325 326 331 332 339 337 335 338 341 352 359 4 5 4
245 240 240 260 251 234 253 236 191 177 96 218 93 280 246 130 81 156 156 156 164 164 164 168 179 200 238 326 324 308 307 315 323 331 335 340 345 346 351 354 359 3 7 8
224 219 154 264 265 240 248 155 151 167 224 9 166 251 229 122 119 148 148 152 164 163 164 165 182 218 253 288 289 288 296 309 318 328 334 341 347 349 349 353 358 4 7 11
248 254 298 284 335 73 131 124 106 139 143 268 192 193 281 225 176 151 146 147 156 158 161 171 192 217 248 255 273 275 295 309 315 325 335 344 349 352 353 358 2 7 7 11
255 250 257 241 211 177 104 76 336 320 11 240 214 200 257 321 165 162 157 156 159 163 174 193 199 217 230 250 279 287 302 311 315 327 336 350 352 355 359 2 5 5 8 8
224 309 217 194 211 186 185 161 165 219 208 254 294 227 272 16 105 126 142 152 162 174 190 198 212 230 244 264 282 295 304 308 316 328 341 357 358 3 3 5 9 11 12 8
262 273 299 193 155 160 188 163 189 122 17 79 245 72 346 95 96 120 140 164 177 185 192 207 218 230 242 262 283 292 300 309 327 345 357 2 5 6 7 7 8 11 11 9
228 281 331 0 68 27 138 140 93 12 153 231 269 206 220 172 163 158 176 188 184 193 202 212 222 226 236 261 274 285 293 301 348 359 3 7 6 7 8 9 13 14 12 10
162 148 263 59 150 173 139 133 159 131 144 192 219 258 210 186 183 195 210 205 198 208 213 214 218 222 234 252 270 275 276 306 358 9 13 12 11 11 11 13 18 20 16 15
186 142 196 199 110 244 197 202 167 157 220 190 152 265 277 183 196 200 217 224 214 217 218 214 220 226 232 253 259 253 242 272 22 27 22 17 15 17 18 20 24 24 22 19
199 155 84 341 346 135 231 239 186 126 100 189 162 256 292 154 191 221 243 244 223 214 209 210 217 225 237 243 237 219 203 178 78 39 26 17 19 18 20 25 28 28 25 23
312 187 175 223 189 196 161 150 104 119 113 188 206 261 259 269 250 284 233 219 210 216 207 210 216 227 233 225 206 182 170 174 116 37 16 7 12 16 18 19 25 28 28 26
154 215 139 120 128 154 207 188 151 171 186 196 220 236 213 243 261 175 154 148 164 200 215 219 226 226 221 205 190 188 202 218 212 277 326 334 347 4 15 11 17 22 25 27
26 281 89 261 173 265 280 228 230 220 217 230 217 248 237 170 144 147 166 168 184 202 215 221 225 221 210 192 187 184 213 228 230 256 265 284 300 297 353 4 11 16 23 26
168 167 174 243 244 322 283 216 221 218 205 205 233 243 136 137 139 150 179 204 207 214 221 214 215 204 193 189 191 195 220 224 229 240 240 253 260 248 296 352 10 24 28 26
158 147 151 164 131 229 240 208 217 233 234 218 236 154 161 164 159 157 190 212 218 221 223 214 204 191 179 186 193 210 220 226 240 241 246 254 261 240 264 5 19 27 26 29
159 144 145 166 209 290 303 292 208 183 271 276 153 140 141 144 141 203 218 223 253 237 223 216 200 187 183 192 209 213 213 222 234 229 231 228 212 160 102 82 64 42 25 26
114 135 116 172 209 228 205 228 262 159 243 246 135 140 143 154 135 255 210 221 224 219 211 196 188 190 195 201 213 217 215 220 210 194 180 159 128 132 124 99 91 54 34 19
139 59 202 192 236 277 232 252 202 218 234 172 160 169 166 181 203 237 208 215 223 220 203 194 194 199 205 200 208 219 225 213 191 169 161 158 122 91 61 55 56 17 17 10
165 170 184 152 215 267 212 284 239 236 168 172 167 171 179 206 220 241 229 206 195 188 181 194 202 201 201 197 193 198 197 188 177 166 158 162 161 107 60 5 18 8 346 348
220 170 179 180 205 207 194 184 143 143 156 161 170 181 194 193 221 227 211 197 195 200 196 192 191 185 188 183 192 189 177 184 172 167 171 180 172 154 76 59 52 41 38 29
306 165 176 119 256 211 214 202 175 181 213 197 196 189 194 211 241 217 196 193 203 206 202 194 187 189 185 191 200 216 206 197 191 196 196 201 204 187 181 6 27 30 41 39
209 25 142 267 279 318 244 231 239 183 173 174 181 206 237 233 235 223 204 202 214 208 201 198 192 187 188 195 203 204 205 214 208 209 211 203 209 230 236 262 313 356 14 19
199 191 159 209 186 162 250 171 217 229 220 238 240 227 230 238 238 221 213 207 210 202 199 196 197 201 205 203 203 202 211 219 218 217 217 224 226 228 247 262 270 317 344 351
Height
1505 1512 1512 1507 1504 1502 1502 1503 1505 1501 1495 1495 1495 1496 1496 1495 1499 1502 1506 1509 1511 1513 1517 1519 1519 1520 1520 1520 1518 1516 1515 1514 1514 1514 1512 1510 1507 1503 1501 1496 1493 1488 1482 1476
1506 1508 1500 1498 1497 1499 1499 1500 1502 1496 1488 1493 1491 1492 1491 1494 1489 1490 1497 1503 1507 1511 1515 1517 1519 1519 1519 1519 1517 1516 1513 1512 1512 1512 1510 1509 1506 1502 1499 1495 1491 1487 1480 1474
1503 1495 1491 1494 1494 1495 1493 1497 1497 1498 1490 1488 1491 1494 1487 1485 1487 1493 1500 1501 1505 1507 1511 1516 1518 1518 1518 1519 1517 1515 1512 1512 1510 1512 1509 1508 1505 1502 1498 1495 1489 1485 1478 1473
1495 1488 1488 1489 1491 1491 1497 1486 1487 1491 1497 1507 1489 1514 1487 1483 1490 1492 1495 1499 1502 1506 1510 1513 1516 1517 1517 1518 1517 1515 1512 1512 1511 1510 1507 1506 1501 1498 1494 1491 1486 1484 1477 1473
1487 1482 1484 1488 1485 1481 1485 1482 1486 1490 1496 1498 1494 1503 1490 1485 1496 1495 1498 1499 1503 1508 1509 1511 1515 1516 1515 1517 1516 1513 1511 1510 1509 1508 1506 1504 1500 1497 1494 1489 1486 1481 1477 1472
1478 1480 1480 1480 1478 1477 1480 1485 1487 1488 1496 1509 1495 1496 1492 1486 1487 1495 1498 1500 1504 1507 1510 1512 1513 1515 1515 1517 1514 1512 1511 1508 1507 1505 1504 1501 1499 1495 1492 1489 1484 1479 1475 1471
1477 1472 1474 1478 1482 1479 1480 1491 1510 1513 1514 1505 1480 1489 1491 1486 1481 1482 1492 1501 1502 1504 1507 1510 1513 1513 1513 1513 1511 1511 1509 1507 1506 1505 1503 1499 1498 1494 1491 1488 1483 1477 1474 1469
1486 1487 1468 1464 1468 1479 1482 1486 1508 1505 1513 1504 1486 1489 1493 1489 1487 1488 1494 1499 1503 1504 1506 1509 1510 1511 1511 1510 1509 1509 1508 1506 1505 1504 1502 1498 1496 1493 1491 1487 1483 1477 1473 1469
1484 1477 1459 1459 1459 1466 1477 1485 1479 1494 1499 1513 1501 1496 1490 1491 1492 1493 1495 1498 1499 1502 1504 1505 1507 1508 1507 1507 1507 1507 1508 1506 1504 1503 1501 1497 1495 1493 1491 1487 1483 1477 1473 1469
1472 1481 1466 1462 1461 1466 1470 1472 1491 1502 1506 1504 1501 1495 1503 1495 1494 1496 1496 1495 1498 1500 1500 1501 1502 1504 1505 1505 1504 1505 1506 1506 1503 1503 1500 1497 1495 1493 1490 1487 1483 1478 1474 1470
1467 1479 1473 1465 1470 1473 1474 1480 1480 1484 1499 1507 1522 1511 1484 1487 1491 1491 1490 1489 1491 1491 1494 1496 1498 1501 1502 1503 1502 1503 1505 1505 1503 1501 1500 1497 1495 1493 1490 1487 1484 1478 1474 1471
1461 1473 1480 1470 1463 1463 1466 1471 1474 1494 1491 1499 1509 1512 1479 1480 1483 1485 1486 1486 1488 1489 1492 1495 1496 1498 1500 1500 1501 1502 1504 1504 1502 1500 1498 1498 1496 1494 1490 1488 1484 1478 1475 1472
1462 1471 1485 1479 1472 1465 1468 1468 1467 1476 1488 1489 1506 1508 1479 1480 1483 1483 1484 1484 1483 1486 1488 1492 1494 1495 1497 1498 1500 1501 1502 1502 1500 1499 1498 1498 1496 1494 1491 1489 1484 1480 1476 1474
1462 1464 1467 1475 1472 1470 1473 1471 1470 1477 1498 1493 1497 1486 1481 1478 1479 1478 1480 1479 1478 1481 1485 1488 1491 1493 1495 1496 1498 1500 1500 1501 1501 1499 1498 1497 1496 1495 1493 1489 1485 1481 1478 1476
1461 1468 1463 1466 1467 1467 1469 1470 1471 1473 1476 1482 1484 1477 1477 1473 1474 1475 1477 1478 1478 1481 1483 1485 1487 1489 1492 1494 1495 1497 1498 1498 1500 1500 1498 1497 1496 1495 1493 1489 1486 1483 1481 1478
1462 1468 1466 1474 1465 1467 1469 1473 1471 1472 1472 1472 1472 1472 1467 1468 1470 1473 1475 1475 1476 1477 1479 1481 1483 1486 1489 1492 1493 1495 1496 1496 1498 1498 1497 1497 1497 1495 1492 1490 1487 1485 1482 1480
1460 1468 1471 1464 1464 1466 1473 1480 1470 1462 1461 1462 1467 1462 1466 1470 1470 1471 1472 1473 1473 1473 1474 1476 1479 1481 1486 1489 1491 1492 1494 1495 1496 1496 1496 1496 1496 1494 1492 1490 1488 1486 1483 1481
1454 1457 1464 1469 1469 1478 1457 1452 1453 1454 1452 1453 1454 1458 1460 1464 1465 1467 1469 1470 1469 1470 1471 1473 1476 1480 1482 1486 1489 1491 1492 1493 1494 1495 1495 1495 1494 1493 1491 1490 1488 1487 1484 1481
1444 1453 1462 1466 1464 1459 1455 1451 1451 1452 1452 1448 1451 1456 1460 1462 1464 1465 1466 1466 1466 1466 1468 1472 1474 1478 1480 1484 1486 1488 1490 1491 1492 1492 1493 1493 1492 1491 1491 1490 1489 1487 1485 1482
1442 1444 1456 1470 1468 1467 1453 1444 1443 1446 1458 1448 1448 1455 1457 1461 1469 1465 1462 1463 1464 1464 1467 1470 1473 1477 1479 1482 1484 1486 1487 1489 1490 1490 1491 1491 1491 1490 1490 1489 1489 1487 1485 1482
1446 1454 1456 1464 1461 1454 1443 1441 1444 1454 1454 1445 1448 1451 1454 1457 1456 1457 1458 1460 1462 1463 1465 1469 1471 1474 1477 1480 1482 1484 1485 1487 1488 1489 1489 1490 1490 1490 1489 1489 1489 1487 1485 1483
1437 1449 1458 1461 1464 1462 1440 1442 1447 1443 1439 1442 1445 1447 1450 1452 1453 1455 1455 1456 1458 1460 1464 1468 1470 1473 1476 1479 1480 1482 1483 1485 1486 1487 1488 1488 1489 1489 1489 1489 1488 1487 1485 1483
1438 1436 1446 1444 1446 1436 1436 1438 1438 1439 1439 1440 1443 1445 1446 1449 1451 1452 1453 1454 1457 1460 1463 1465 1467 1470 1473 1476 1478 1480 1482 1483 1484 1486 1487 1487 1488 1489 1489 1488 1487 1486 1485 1483
1427 1426 1433 1436 1432 1430 1431 1433 1434 1438 1440 1440 1441 1442 1444 1446 1447 1448 1450 1451 1454 1457 1459 1462 1465 1468 1470 1473 1476 1478 1480 1482 1483 1484 1486 1486 1487 1488 1487 1487 1486 1485 1484 1482
1430 1428 1429 1433 1429 1428 1428 1430 1432 1434 1435 1437 1439 1439 1440 1441 1442 1444 1446 1447 1449 1453 1456 1458 1461 1464 1467 1470 1473 1475 1477 1479 1481 1483 1484 1485 1485 1485 1486 1485 1485 1484 1483 1482
1426 1427 1432 1434 1426 1428 1430 1428 1432 1433 1433 1433 1433 1434 1435 1437 1438 1440 1442 1444 1446 1449 1452 1456 1459 1462 1465 1468 1471 1473 1476 1477 1479 1481 1482 1483 1483 1484 1484 1483 1483 1482 1481 1480